Location: Doussal
(55.6167°N, 116.8333°W)
Time: 00:00:33
(UTC+00:00)

MOZHAYETS 4 - Visible Passes

Search period start: 02 December 2023 00:00
Search period end: 12 December 2023 00:00
Orbit: 656 x 672 km, 98.3° (Epoch: 01 December)

Date Brightness Start Highest point End Pass type
(mag) Time Alt. Az. Time Alt. Az. Time Alt. Az.
02 Dec 7.8 00:07:06 10° NNE 00:11:45 90° SE 00:16:22 10° SSW visible
02 Dec 10.1 01:44:55 10° N 01:48:09 19° NW 01:51:22 10° W visible
03 Dec 8.5 00:38:04 10° N 00:42:34 53° WNW 00:47:02 10° SW visible
03 Dec 10.5 02:16:42 10° NNW 02:18:35 12° NW 02:20:30 10° WNW visible
04 Dec 9.4 01:09:10 10° N 01:13:15 32° WNW 01:17:19 10° WSW visible
05 Dec 7.8 00:02:42 10° NNE 00:07:21 83° ESE 00:11:59 10° SSW visible
05 Dec 10.0 01:40:27 10° N 01:43:48 20° NW 01:47:11 10° W visible
06 Dec 8.4 00:33:38 10° N 00:38:10 57° WNW 00:42:41 10° SW visible
06 Dec 10.4 02:12:05 10° NNW 02:14:15 13° NW 02:16:26 10° WNW visible
07 Dec 9.3 01:04:42 10° N 01:08:52 34° WNW 01:13:00 10° SW visible
07 Dec 7.8 23:58:16 10° NNE 00:02:55 77° ESE 00:07:32 10° SSW visible
08 Dec 9.9 01:35:56 10° N 01:39:26 22° NW 01:42:55 10° WSW visible
09 Dec 8.2 00:29:09 10° N 00:33:44 62° WNW 00:38:16 10° SSW visible
09 Dec 10.4 02:07:27 10° NNW 02:09:53 14° NW 02:12:17 10° W visible
10 Dec 9.1 01:00:11 10° N 01:04:25 37° WNW 01:08:39 10° SW visible
10 Dec 7.8 23:53:47 10° NNE 23:58:25 70° ESE 00:03:01 10° S visible
11 Dec 9.8 01:31:22 10° N 01:34:59 23° NW 01:38:37 10° WSW visible
